Simultaneous Nadir Overpasses (SNOs) Predictions

Prediction of SNOs between NOAA-19 and TERRA Satellite Orbit:

Table of predicted SNOs for the next 14.0 days since TLE Epoch: 10/15/2022
Index Date (NOAA-19) Time (NOAA-19) Lat,Lon (NOAA-19) SZA (NOAA-19 ) Date (TERRA) Time (TERRA) Lat,Lon (TERRA) SZA (TERRA ) Distance(km) Time Diff (sec)
1 10/15/2022 22:56:26 -80.91, 47.78 88.69 10/15/2022 22:57:37 -80.72, 49.59 88.65 38.28 71
2 10/15/2022 23:47:20 80.88,-141.04 91.67 10/15/2022 23:46:58 80.86,-141.13 91.64 2.46 22
3 10/18/2022 04:29:10 80.88, 148.43 92.48 10/18/2022 04:29:16 80.86, 148.29 92.45 3.09 6
4 10/20/2022 09:11:00 80.88, 77.83 93.27 10/20/2022 09:11:33 80.89, 77.95 93.29 2.00 33
5 10/20/2022 10:01:54 -80.88,-114.63 86.70 10/20/2022 10:00:57 -80.87,-114.54 86.72 1.82 57
6 10/22/2022 13:52:49 80.88, 7.56 94.07 10/22/2022 13:53:50 80.90, 7.50 94.10 1.78 61
7 10/22/2022 14:43:43 -80.88, 175.05 85.91 10/22/2022 14:43:14 -80.89, 175.05 85.91 0.84 29
8 10/24/2022 19:25:33 -80.89, 104.32 85.16 10/24/2022 19:25:32 -80.87, 104.19 85.19 3.06 1
9 10/27/2022 00:07:21 -80.89, 33.92 84.40 10/27/2022 00:07:47 -80.89, 33.92 84.38 0.82 26



Historial Predications of SNOs between NOAA-19 and TERRA
